Temp
39 39 40 42 42 41 40 41 42 41 40 38 38 38 38 38 38 39 38 38 39 40 40 40 41 40 39 38 39 39 38 38 38 39 41 41 40 39 38 38 38 38 38 39 38 38 38 38 39 40 41 42 42 41 41 42 41 41 41 41 43 42 41 41 42 42 41 41 42
38 39 41 44 43 42 40 41 41 41 40 38 38 38 37 38 38 39 38 37 39 40 40 40 40 39 39 39 39 38 38 38 38 38 39 39 38 38 38 37 37 38 38 38 38 39 40 40 40 41 42 42 42 41 42 43 42 41 40 39 41 42 42 42 42 42 41 41 41
37 38 39 40 39 39 39 39 39 38 37 37 37 37 37 37 38 39 39 39 38 37 38 39 39 39 39 39 38 38 37 37 37 37 37 38 38 38 38 37 37 38 38 39 38 39 41 39 40 43 45 45 43 43 44 43 42 41 40 39 41 43 43 44 43 42 42 43 41
36 36 37 37 38 38 39 40 38 37 37 37 35 36 37 37 37 38 38 37 36 36 38 39 39 39 39 39 39 38 37 39 38 38 37 38 38 38 37 37 37 37 37 38 38 38 39 38 40 43 44 42 41 43 44 44 42 42 42 41 42 42 42 44 43 43 43 43 41
36 36 36 37 37 37 37 37 37 37 37 37 36 35 36 36 37 36 36 38 38 39 39 38 38 38 39 38 38 37 37 37 40 39 38 37 37 37 37 37 37 38 38 38 38 39 39 38 41 43 43 42 43 44 43 42 41 41 42 43 42 42 43 43 43 43 43 43 42
37 36 35 35 35 35 35 35 36 36 36 36 36 36 36 37 36 37 37 38 39 38 37 38 39 40 40 38 37 36 36 36 37 37 36 37 37 37 37 37 37 38 39 39 39 39 39 39 42 44 44 44 43 42 42 40 40 41 42 43 43 42 42 41 42 42 42 41 40
37 36 35 35 35 35 35 34 34 34 34 34 35 36 37 36 36 36 36 36 36 36 38 41 40 39 38 37 36 36 36 36 36 36 36 37 37 37 38 39 38 39 39 40 40 40 40 39 42 44 45 46 46 44 41 40 40 41 42 42 43 42 42 41 41 40 40 38 37
36 37 36 36 36 35 35 34 34 34 34 35 36 36 36 36 35 35 35 35 36 37 38 40 38 36 36 36 36 36 37 37 37 37 37 37 37 38 38 39 39 40 40 40 40 41 41 42 43 44 44 45 45 44 43 41 40 40 40 41 42 41 41 42 39 38 38 36 35
36 36 36 36 35 35 34 34 34 34 35 36 36 36 35 35 35 36 36 37 38 39 38 37 36 35 35 35 36 37 37 37 37 38 38 38 38 39 40 40 41 41 41 42 41 40 40 42 43 44 44 44 44 44 43 41 40 39 39 40 41 41 41 40 38 36 36 36 35
37 36 35 35 35 35 35 33 34 34 35 35 35 35 36 39 38 37 37 38 38 37 36 35 36 36 36 36 37 37 37 37 38 38 38 39 39 39 40 41 41 41 42 42 42 41 41 42 43 43 43 43 42 42 42 40 39 38 39 40 40 40 39 39 38 36 36 37 36
37 36 35 35 35 36 36 33 34 35 36 35 35 35 35 37 37 37 37 37 35 35 35 36 36 36 37 37 37 37 37 37 38 38 38 38 39 39 39 39 39 40 41 42 42 43 43 43 43 42 42 41 40 40 40 39 38 37 37 39 39 38 38 38 38 37 37 37 36
36 35 35 34 34 34 34 34 34 35 36 35 35 34 34 34 34 35 35 34 34 35 36 36 36 36 36 37 37 37 38 37 36 37 37 38 38 38 38 38 39 39 40 41 41 42 43 42 42 41 40 39 40 40 39 37 37 37 37 37 37 37 37 37 37 37 38 38 36
35 35 34 33 32 32 33 34 33 33 34 34 34 34 33 33 34 35 35 34 35 36 36 36 36 36 36 37 37 37 37 37 36 37 38 38 38 38 38 39 39 39 40 41 41 41 41 41 39 38 38 38 39 39 38 37 36 36 37 37 37 37 37 36 36 36 37 36 36
34 33 33 32 32 32 33 33 33 33 33 33 33 33 32 32 34 35 35 34 35 35 35 35 36 37 37 36 36 36 36 36 36 36 36 37 38 38 38 39 39 39 40 41 40 39 38 38 37 37 36 36 37 37 37 37 37 37 37 37 37 37 37 36 35 35 35 35 35
33 33 32 32 32 32 32 33 33 33 33 33 33 32 32 32 34 35 35 34 34 34 34 34 35 36 37 36 35 35 35 35 35 35 36 37 38 38 38 39 39 39 39 39 38 37 37 36 35 35 35 35 36 36 36 36 36 36 36 36 36 36 36 35 35 35 35 35 34
33 33 32 31 32 32 32 32 32 33 33 33 32 32 32 32 33 34 35 34 34 34 34 34 34 35 36 36 36 35 35 35 35 36 36 38 38 38 38 38 38 38 37 36 36 36 36 36 36 35 34 34 35 35 35 35 35 35 34 34 34 34 34 35 35 35 35 35 35
33 32 31 31 31 32 32 31 31 31 32 32 32 32 32 32 32 34 36 36 35 34 34 34 34 35 35 36 37 36 36 36 37 37 37 38 38 38 37 37 37 37 36 34 35 35 36 36 37 36 35 34 34 34 34 34 34 34 34 34 34 34 34 35 36 36 35 35 35
33 32 31 31 31 32 32 31 31 31 32 32 32 32 32 32 32 33 34 35 34 34 34 34 34 34 35 35 36 37 37 37 37 37 37 37 36 36 36 36 37 36 35 33 34 34 35 36 36 36 36 35 34 34 34 34 34 34 34 34 34 34 34 35 35 35 35 35 35
32 31 31 31 31 32 32 33 32 32 32 32 32 32 32 31 32 32 32 33 34 34 34 34 34 34 35 35 35 37 37 37 36 36 36 35 35 35 35 35 36 36 35 33 33 34 35 35 36 36 36 35 34 34 34 34 34 34 34 34 34 34 34 34 34 34 35 35 35
32 32 32 32 31 31 32 33 33 32 32 32 31 31 31 31 31 32 32 33 34 34 33 33 34 35 35 35 35 35 36 36 35 35 35 35 35 35 35 35 35 35 35 32 33 33 34 35 35 35 34 34 33 33 33 34 34 34 34 34 34 34 34 34 34 34 34 34 34
32 32 32 31 31 31 32 32 32 32 31 31 31 31 31 31 32 32 32 34 34 33 33 32 33 34 35 35 34 34 34 36 35 35 35 35 35 35 35 36 36 36 36 33 33 33 33 34 34 33 33 33 33 33 33 34 34 34 34 34 34 34 34 34 34 34 34 34 34
32 31 31 31 31 31 31 31 31 31 31 31 31 31 31 31 32 32 32 33 33 33 33 33 33 33 34 34 34 34 34 35 34 35 35 35 36 36 36 37 36 36 35 33 32 32 32 32 32 32 32 33 33 33 33 34 34 34 34 34 34 34 34 34 34 35 35 35 35
32 31 30 30 30 32 33 32 31 31 31 31 31 31 31 32 32 32 32 32 33 33 33 33 33 33 33 33 32 32 33 33 34 34 34 34 35 35 36 36 35 34 34 33 32 32 32 32 32 33 33 33 33 33 33 33 34 34 34 34 34 34 34 34 34 35 35 34 34
32 31 31 30 30 31 31 31 31 31 32 32 32 32 32 32 32 32 32 32 32 32 33 34 34 33 32 32 31 31 31 32 33 34 34 35 35 35 35 36 36 35 34 34 35 35 36 36 35 35 35 34 34 35 36 36 36 35 35 35 35 35 35 35 35 35 35 35 35
31 31 32 31 31 31 31 31 31 32 32 32 32 32 32 32 32 32 32 32 32 32 32 32 32 32 32 32 32 32 32 32 33 34 35 35 36 36 36 37 37 36 36 36 41 43 44 44 41 39 37 36 37 38 39 39 38 38 37 37 36 35 35 36 36 36 36 36 35
31 31 31 31 31 31 31 31 31 31 32 32 32 32 32 32 32 32 32 32 33 32 32 31 31 32 34 34 34 33 33 34 34 35 35 36 36 35 36 37 38 36 35 38 43 45 46 47 47 44 41 37 38 39 40 39 39 38 38 37 37 36 35 35 36 36 37 36 36
31 31 31 31 31 31 31 31 31 31 31 32 32 32 32 32 33 32 32 32 32 32 31 31 31 34 36 35 34 34 35 36 35 35 34 35 35 35 35 36 36 35 35 40 43 46 46 47 47 47 44 40 40 40 40 40 38 38 37 37 36 36 36 35 35 36 37 38 37
32 32 32 31 31 31 31 31 31 31 32 32 32 32 32 32 31 31 31 31 31 31 31 31 32 34 35 35 35 35 35 35 35 35 35 35 35 34 35 36 35 35 38 43 45 46 47 47 47 47 46 45 43 41 40 39 38 38 38 37 37 37 37 37 37 37 37 37 37
32 32 32 31 31 31 31 31 31 32 33 32 32 32 32 31 31 31 30 30 30 30 31 33 35 35 35 35 35 35 34 34 35 35 35 34 34 34 35 35 35 37 40 44 45 46 46 47 47 47 47 47 44 43 41 40 40 39 39 38 38 38 38 37 37 37 37 36 36
31 31 31 31 31 31 32 32 32 32 32 32 32 31 31 30 30 30 30 30 30 31 32 34 34 34 34 34 34 35 35 35 35 35 34 34 34 35 36 37 36 36 39 44 45 46 46 46 47 47 47 47 45 43 42 40 39 39 38 38 38 37 37 37 37 37 36 36 36
30 30 30 30 30 31 32 32 32 31 31 31 31 30 30 30 29 30 30 30 31 32 34 33 32 32 32 33 33 34 34 35 35 34 34 34 35 36 36 36 34 36 39 43 45 46 46 46 46 46 46 47 45 44 42 41 40 39 38 38 38 37 36 37 37 36 36 36 36
30 30 29 30 30 31 31 31 30 30 30 29 29 29 29 29 29 30 30 31 32 32 32 32 32 32 32 33 33 33 34 34 35 35 35 35 35 35 35 36 35 36 39 44 45 46 46 46 46 46 46 46 45 43 42 41 40 39 38 37 37 36 36 37 37 36 36 35 35
29 29 29 29 29 30 30 30 29 29 28 28 28 28 29 29 29 29 29 30 31 32 32 32 32 32 33 33 33 34 34 35 35 36 37 36 35 35 35 36 36 38 41 44 45 45 46 46 46 46 46 46 44 43 41 40 40 39 38 37 37 37 36 36 36 35 35 35 34
29 29 29 29 29 29 29 29 28 27 27 27 27 28 28 28 29 29 30 31 32 33 33 33 33 33 33 33 33 34 35 37 37 36 35 34 34 34 34 35 37 40 43 44 45 45 45 45 45 45 46 46 44 42 40 39 39 39 38 37 37 37 36 35 34 34 33 33 33
30 29 29 29 28 28 28 27 26 26 26 27 28 28 28 29 29 30 31 33 34 34 33 33 33 33 33 33 33 33 34 36 36 35 35 34 34 34 35 35 36 39 42 44 44 45 45 45 45 45 45 44 43 41 39 38 38 38 37 36 36 36 35 34 33 33 32 32 33
30 29 29 28 28 27 26 26 26 26 27 28 28 29 29 29 29 30 32 35 34 33 32 32 32 32 32 33 33 34 35 35 35 35 35 35 35 34 34 35 35 38 41 43 44 44 44 45 45 45 44 43 41 40 39 38 38 36 35 35 35 34 34 33 33 32 32 32 32
29 29 28 28 27 27 27 26 26 27 28 28 29 29 30 30 30 31 32 34 33 32 32 32 32 32 32 32 34 34 34 35 35 35 35 36 35 35 34 34 35 37 39 42 43 44 44 44 44 44 43 42 40 39 38 38 37 35 34 34 34 33 33 33 33 33 32 32 33
29 28 28 27 27 27 27 27 27 28 28 29 29 30 30 30 31 31 32 35 33 32 32 32 32 32 33 33 34 35 35 35 35 35 35 35 35 34 34 34 34 36 38 41 42 43 43 44 44 44 43 41 40 39 38 37 35 35 34 33 33 32 32 33 33 33 33 33 35
28 28 27 27 28 28 28 27 28 28 29 29 30 30 30 30 31 32 33 35 33 32 31 31 32 33 34 35 36 36 35 35 35 35 35 34 35 36 36 35 35 35 37 40 42 42 43 43 43 44 43 42 40 38 37 36 34 33 33 33 33 32 32 33 33 33 33 33 37
28 28 27 27 28 28 28 28 28 29 29 30 30 30 30 31 32 33 34 34 32 31 31 32 32 33 35 37 36 35 35 35 35 35 35 35 35 37 38 36 35 35 36 39 41 42 42 43 43 44 43 41 39 38 37 35 34 33 32 32 33 32 32 33 33 33 33 34 36
28 27 27 28 28 28 28 29 29 29 29 30 30 30 31 33 33 33 33 32 31 32 32 33 33 34 34 36 36 35 34 34 34 34 34 35 35 36 37 35 34 33 34 36 39 41 42 43 43 43 43 41 39 38 36 35 34 33 32 32 32 32 32 32 33 33 34 34 35
MSLP
1024.05 1024.09 1024.13 1024.13 1024.21 1024.33 1024.41 1024.37 1024.37 1024.41 1024.49 1024.57 1024.65 1024.69 1024.73 1024.77 1024.77 1024.73 1024.69 1024.69 1024.65 1024.57 1024.49 1024.37 1024.29 1024.21 1024.09 1024.01 1023.97 1023.97 1023.93 1023.81 1023.81 1023.69 1023.65 1023.57 1023.49 1023.41 1023.37 1023.29 1023.21 1023.21 1023.09 1022.97 1022.89 1022.85 1022.81 1022.73 1022.73 1022.65 1022.61 1022.53 1022.49 1022.41 1022.29 1022.21 1022.17 1022.13 1022.09 1022.05 1021.97 1021.89 1021.85 1021.81 1021.73 1021.65 1021.61 1021.53 1021.41
1024.09 1024.09 1024.09 1024.09 1024.17 1024.25 1024.37 1024.45 1024.45 1024.41 1024.45 1024.53 1024.53 1024.57 1024.65 1024.65 1024.65 1024.65 1024.61 1024.61 1024.49 1024.37 1024.33 1024.21 1024.17 1024.13 1024.09 1024.01 1023.93 1023.89 1023.89 1023.81 1023.77 1023.65 1023.57 1023.49 1023.41 1023.33 1023.25 1023.21 1023.13 1023.09 1023.01 1022.93 1022.89 1022.81 1022.73 1022.65 1022.65 1022.61 1022.53 1022.41 1022.37 1022.33 1022.21 1022.05 1022.05 1022.05 1021.97 1021.93 1021.85 1021.81 1021.73 1021.65 1021.61 1021.49 1021.41 1021.37 1021.25
1024.09 1024.09 1024.09 1024.17 1024.25 1024.33 1024.41 1024.49 1024.53 1024.53 1024.53 1024.53 1024.53 1024.53 1024.53 1024.57 1024.57 1024.53 1024.49 1024.37 1024.37 1024.37 1024.29 1024.21 1024.13 1024.09 1024.05 1023.97 1023.85 1023.81 1023.81 1023.81 1023.73 1023.65 1023.57 1023.45 1023.33 1023.21 1023.21 1023.13 1023.09 1022.97 1022.93 1022.85 1022.81 1022.77 1022.69 1022.65 1022.65 1022.53 1022.45 1022.33 1022.29 1022.21 1022.09 1021.93 1021.93 1021.93 1021.93 1021.81 1021.73 1021.65 1021.61 1021.49 1021.41 1021.33 1021.25 1021.17 1021.13
1024.05 1024.09 1024.17 1024.21 1024.29 1024.37 1024.37 1024.41 1024.49 1024.49 1024.49 1024.49 1024.53 1024.53 1024.53 1024.49 1024.45 1024.41 1024.37 1024.37 1024.33 1024.29 1024.21 1024.17 1024.09 1024.01 1023.93 1023.93 1023.85 1023.77 1023.69 1023.65 1023.65 1023.65 1023.57 1023.45 1023.33 1023.21 1023.13 1023.09 1023.05 1022.97 1022.89 1022.81 1022.81 1022.69 1022.65 1022.65 1022.57 1022.49 1022.37 1022.33 1022.25 1022.17 1022.01 1021.85 1021.81 1021.81 1021.77 1021.65 1021.57 1021.49 1021.45 1021.37 1021.25 1021.21 1021.09 1021.05 1021.01
1024.05 1024.09 1024.13 1024.21 1024.21 1024.29 1024.33 1024.37 1024.37 1024.41 1024.45 1024.45 1024.49 1024.53 1024.53 1024.49 1024.45 1024.41 1024.37 1024.37 1024.29 1024.21 1024.13 1024.09 1024.09 1023.97 1023.93 1023.89 1023.85 1023.77 1023.65 1023.61 1023.53 1023.53 1023.49 1023.45 1023.33 1023.21 1023.13 1023.09 1023.09 1022.93 1022.85 1022.81 1022.73 1022.65 1022.61 1022.57 1022.49 1022.37 1022.29 1022.21 1022.09 1022.01 1021.89 1021.81 1021.81 1021.69 1021.61 1021.49 1021.45 1021.41 1021.37 1021.25 1021.13 1021.09 1021.01 1020.93 1020.85
1024.09 1024.09 1024.17 1024.21 1024.21 1024.25 1024.29 1024.33 1024.37 1024.37 1024.41 1024.45 1024.49 1024.53 1024.49 1024.45 1024.41 1024.37 1024.37 1024.33 1024.21 1024.13 1024.09 1024.05 1023.97 1023.89 1023.85 1023.85 1023.81 1023.77 1023.69 1023.65 1023.53 1023.53 1023.49 1023.45 1023.33 1023.21 1023.13 1023.09 1023.01 1022.93 1022.81 1022.73 1022.65 1022.57 1022.53 1022.53 1022.37 1022.25 1022.17 1022.09 1021.97 1021.85 1021.77 1021.77 1021.69 1021.61 1021.49 1021.41 1021.37 1021.29 1021.21 1021.17 1021.09 1020.97 1020.93 1020.85 1020.81
1024.05 1024.09 1024.17 1024.21 1024.21 1024.21 1024.25 1024.33 1024.37 1024.37 1024.45 1024.49 1024.53 1024.53 1024.49 1024.45 1024.41 1024.37 1024.37 1024.29 1024.21 1024.09 1024.05 1023.93 1023.93 1023.89 1023.89 1023.89 1023.85 1023.77 1023.69 1023.65 1023.53 1023.49 1023.45 1023.41 1023.33 1023.21 1023.13 1023.05 1022.93 1022.85 1022.81 1022.65 1022.61 1022.53 1022.49 1022.45 1022.37 1022.21 1022.05 1021.93 1021.85 1021.73 1021.65 1021.65 1021.61 1021.57 1021.49 1021.37 1021.25 1021.21 1021.13 1021.09 1020.93 1020.89 1020.81 1020.81 1020.73
1024.05 1024.09 1024.13 1024.17 1024.21 1024.25 1024.29 1024.37 1024.37 1024.41 1024.49 1024.53 1024.53 1024.49 1024.45 1024.41 1024.37 1024.37 1024.29 1024.21 1024.17 1024.09 1024.01 1023.93 1023.93 1023.93 1023.93 1023.89 1023.85 1023.77 1023.69 1023.65 1023.53 1023.45 1023.41 1023.37 1023.29 1023.21 1023.09 1023.01 1022.93 1022.81 1022.65 1022.61 1022.53 1022.49 1022.37 1022.37 1022.25 1022.13 1022.05 1021.93 1021.81 1021.65 1021.53 1021.53 1021.53 1021.49 1021.41 1021.33 1021.17 1021.09 1021.05 1020.93 1020.85 1020.81 1020.77 1020.73 1020.61
1024.05 1024.09 1024.09 1024.17 1024.21 1024.25 1024.29 1024.37 1024.37 1024.45 1024.49 1024.49 1024.45 1024.41 1024.37 1024.33 1024.33 1024.29 1024.21 1024.17 1024.09 1024.01 1023.97 1023.93 1023.93 1023.93 1023.93 1023.89 1023.81 1023.77 1023.65 1023.65 1023.57 1023.45 1023.37 1023.33 1023.25 1023.13 1023.01 1022.93 1022.81 1022.73 1022.61 1022.53 1022.45 1022.41 1022.37 1022.25 1022.17 1022.09 1021.93 1021.85 1021.73 1021.61 1021.49 1021.49 1021.45 1021.41 1021.33 1021.21 1021.09 1020.93 1020.89 1020.81 1020.77 1020.69 1020.65 1020.57 1020.49
1024.09 1024.09 1024.17 1024.21 1024.25 1024.25 1024.29 1024.37 1024.37 1024.41 1024.41 1024.41 1024.37 1024.33 1024.29 1024.21 1024.21 1024.21 1024.13 1024.09 1024.01 1024.01 1024.01 1023.97 1023.93 1023.89 1023.89 1023.85 1023.77 1023.69 1023.65 1023.61 1023.49 1023.45 1023.37 1023.29 1023.21 1023.09 1022.97 1022.89 1022.81 1022.65 1022.53 1022.45 1022.37 1022.29 1022.21 1022.13 1022.05 1021.93 1021.81 1021.77 1021.65 1021.57 1021.45 1021.41 1021.37 1021.33 1021.21 1021.09 1020.97 1020.85 1020.77 1020.69 1020.65 1020.57 1020.49 1020.37 1020.29
1024.09 1024.13 1024.21 1024.21 1024.25 1024.25 1024.29 1024.37 1024.37 1024.33 1024.33 1024.33 1024.29 1024.25 1024.21 1024.17 1024.17 1024.13 1024.09 1024.09 1024.09 1024.09 1023.97 1023.89 1023.89 1023.89 1023.85 1023.81 1023.73 1023.65 1023.61 1023.49 1023.45 1023.37 1023.29 1023.21 1023.09 1023.01 1022.93 1022.81 1022.73 1022.61 1022.53 1022.37 1022.25 1022.21 1022.09 1022.01 1021.93 1021.81 1021.73 1021.65 1021.61 1021.49 1021.41 1021.33 1021.33 1021.21 1021.09 1020.97 1020.89 1020.77 1020.65 1020.53 1020.45 1020.37 1020.29 1020.17 1020.09
1024.09 1024.17 1024.21 1024.25 1024.29 1024.29 1024.29 1024.33 1024.33 1024.29 1024.29 1024.29 1024.25 1024.21 1024.21 1024.17 1024.13 1024.09 1024.09 1024.09 1024.13 1024.05 1023.89 1023.85 1023.81 1023.85 1023.81 1023.73 1023.65 1023.57 1023.49 1023.45 1023.41 1023.33 1023.21 1023.13 1023.01 1022.93 1022.81 1022.73 1022.61 1022.53 1022.37 1022.25 1022.21 1022.09 1022.01 1021.93 1021.81 1021.77 1021.65 1021.61 1021.53 1021.45 1021.37 1021.25 1021.21 1021.09 1020.97 1020.85 1020.77 1020.65 1020.53 1020.37 1020.25 1020.21 1020.09 1019.93 1019.89
1024.13 1024.21 1024.21 1024.25 1024.29 1024.29 1024.29 1024.29 1024.33 1024.33 1024.33 1024.33 1024.25 1024.21 1024.21 1024.13 1024.09 1024.09 1024.09 1024.09 1024.09 1023.97 1023.85 1023.81 1023.77 1023.77 1023.77 1023.65 1023.57 1023.49 1023.41 1023.37 1023.29 1023.21 1023.13 1023.05 1022.89 1022.81 1022.65 1022.57 1022.49 1022.37 1022.25 1022.17 1022.09 1021.97 1021.93 1021.81 1021.81 1021.73 1021.65 1021.49 1021.45 1021.37 1021.25 1021.17 1021.09 1020.97 1020.85 1020.69 1020.61 1020.53 1020.37 1020.21 1020.09 1020.01 1019.89 1019.81 1019.73
1024.21 1024.21 1024.21 1024.25 1024.29 1024.29 1024.29 1024.33 1024.37 1024.37 1024.37 1024.33 1024.21 1024.21 1024.17 1024.09 1024.09 1024.05 1024.09 1024.09 1024.01 1023.93 1023.89 1023.81 1023.73 1023.65 1023.65 1023.57 1023.49 1023.41 1023.37 1023.25 1023.21 1023.09 1023.01 1022.93 1022.81 1022.65 1022.57 1022.49 1022.37 1022.21 1022.13 1022.05 1021.93 1021.89 1021.81 1021.77 1021.69 1021.65 1021.53 1021.41 1021.33 1021.21 1021.09 1021.05 1020.93 1020.85 1020.73 1020.61 1020.49 1020.33 1020.21 1020.05 1019.93 1019.81 1019.77 1019.65 1019.49
1024.21 1024.21 1024.25 1024.25 1024.29 1024.33 1024.37 1024.37 1024.37 1024.37 1024.33 1024.33 1024.21 1024.13 1024.09 1024.09 1024.01 1023.97 1024.01 1024.01 1023.97 1023.93 1023.85 1023.81 1023.69 1023.57 1023.45 1023.41 1023.37 1023.33 1023.25 1023.17 1023.09 1023.01 1022.89 1022.77 1022.65 1022.53 1022.45 1022.33 1022.21 1022.13 1022.05 1021.93 1021.81 1021.77 1021.73 1021.65 1021.61 1021.49 1021.41 1021.29 1021.17 1021.05 1020.93 1020.85 1020.81 1020.65 1020.57 1020.45 1020.33 1020.17 1020.01 1019.85 1019.77 1019.65 1019.61 1019.49 1019.37
1024.17 1024.21 1024.25 1024.29 1024.33 1024.33 1024.37 1024.37 1024.37 1024.37 1024.33 1024.25 1024.17 1024.09 1024.09 1024.05 1024.01 1023.93 1023.93 1023.93 1023.93 1023.85 1023.81 1023.77 1023.65 1023.49 1023.37 1023.25 1023.21 1023.17 1023.09 1023.05 1022.93 1022.89 1022.81 1022.65 1022.53 1022.41 1022.33 1022.21 1022.09 1022.01 1021.93 1021.85 1021.73 1021.65 1021.57 1021.53 1021.45 1021.37 1021.25 1021.17 1021.05 1020.93 1020.81 1020.65 1020.57 1020.49 1020.37 1020.25 1020.13 1019.97 1019.81 1019.65 1019.57 1019.49 1019.37 1019.29 1019.17
1024.21 1024.21 1024.29 1024.33 1024.33 1024.33 1024.33 1024.37 1024.33 1024.33 1024.25 1024.21 1024.09 1024.09 1024.05 1024.01 1023.97 1023.93 1023.85 1023.81 1023.81 1023.81 1023.73 1023.61 1023.53 1023.41 1023.33 1023.17 1023.09 1023.01 1022.93 1022.93 1022.81 1022.73 1022.65 1022.53 1022.41 1022.33 1022.21 1022.13 1022.01 1021.89 1021.81 1021.73 1021.65 1021.53 1021.45 1021.37 1021.25 1021.17 1021.09 1020.97 1020.89 1020.77 1020.65 1020.53 1020.37 1020.29 1020.17 1020.01 1019.93 1019.77 1019.65 1019.49 1019.37 1019.21 1019.13 1019.05 1018.93
1024.25 1024.29 1024.29 1024.33 1024.33 1024.33 1024.29 1024.29 1024.25 1024.21 1024.21 1024.13 1024.09 1024.05 1024.01 1023.97 1023.93 1023.85 1023.81 1023.69 1023.69 1023.69 1023.65 1023.49 1023.41 1023.37 1023.25 1023.13 1023.01 1022.89 1022.81 1022.77 1022.65 1022.57 1022.49 1022.37 1022.29 1022.21 1022.09 1021.97 1021.89 1021.77 1021.65 1021.61 1021.53 1021.45 1021.33 1021.21 1021.09 1020.97 1020.89 1020.77 1020.65 1020.57 1020.45 1020.33 1020.21 1020.09 1019.93 1019.77 1019.65 1019.49 1019.37 1019.21 1019.13 1019.01 1018.93 1018.81 1018.65
1024.29 1024.29 1024.29 1024.33 1024.29 1024.25 1024.21 1024.21 1024.17 1024.13 1024.09 1024.05 1024.01 1023.97 1023.93 1023.93 1023.89 1023.85 1023.77 1023.65 1023.57 1023.53 1023.53 1023.45 1023.33 1023.21 1023.09 1023.01 1022.89 1022.81 1022.69 1022.65 1022.53 1022.41 1022.33 1022.21 1022.13 1022.05 1021.93 1021.85 1021.73 1021.65 1021.53 1021.49 1021.37 1021.29 1021.17 1021.05 1020.93 1020.81 1020.69 1020.57 1020.49 1020.37 1020.21 1020.09 1019.93 1019.81 1019.65 1019.49 1019.37 1019.21 1019.09 1019.01 1018.85 1018.77 1018.65 1018.53 1018.37
1024.29 1024.29 1024.25 1024.21 1024.21 1024.21 1024.17 1024.09 1024.09 1024.05 1024.01 1023.97 1023.93 1023.93 1023.89 1023.85 1023.81 1023.81 1023.69 1023.57 1023.41 1023.37 1023.41 1023.37 1023.21 1023.09 1022.97 1022.85 1022.81 1022.69 1022.57 1022.49 1022.37 1022.29 1022.17 1022.09 1021.97 1021.93 1021.81 1021.69 1021.57 1021.45 1021.37 1021.33 1021.21 1021.13 1020.97 1020.85 1020.73 1020.65 1020.53 1020.41 1020.25 1020.13 1019.97 1019.81 1019.69 1019.53 1019.37 1019.25 1019.09 1018.97 1018.85 1018.73 1018.57 1018.45 1018.37 1018.21 1018.13
1024.21 1024.17 1024.13 1024.09 1024.09 1024.09 1024.09 1024.05 1024.01 1023.97 1023.93 1023.93 1023.93 1023.89 1023.81 1023.73 1023.69 1023.65 1023.53 1023.41 1023.33 1023.33 1023.33 1023.21 1023.13 1023.05 1022.93 1022.81 1022.69 1022.57 1022.41 1022.33 1022.25 1022.17 1022.05 1021.93 1021.85 1021.77 1021.65 1021.49 1021.41 1021.29 1021.21 1021.17 1021.05 1020.93 1020.81 1020.69 1020.53 1020.41 1020.33 1020.21 1020.05 1019.93 1019.77 1019.57 1019.41 1019.25 1019.13 1018.97 1018.81 1018.65 1018.53 1018.37 1018.25 1018.17 1018.09 1017.93 1017.85
1024.09 1024.05 1024.05 1024.01 1024.01 1024.01 1023.97 1023.93 1023.93 1023.93 1023.93 1023.89 1023.81 1023.81 1023.73 1023.65 1023.53 1023.45 1023.37 1023.29 1023.25 1023.21 1023.17 1023.09 1023.01 1022.89 1022.77 1022.65 1022.57 1022.45 1022.29 1022.17 1022.09 1022.01 1021.89 1021.81 1021.65 1021.53 1021.45 1021.33 1021.25 1021.17 1021.09 1021.01 1020.93 1020.77 1020.65 1020.53 1020.37 1020.25 1020.13 1019.97 1019.81 1019.61 1019.45 1019.29 1019.17 1019.01 1018.85 1018.65 1018.53 1018.37 1018.21 1018.09 1017.97 1017.89 1017.77 1017.65 1017.53
1023.93 1023.93 1023.93 1023.93 1023.93 1023.93 1023.93 1023.89 1023.93 1023.93 1023.89 1023.81 1023.73 1023.65 1023.61 1023.53 1023.41 1023.33 1023.29 1023.21 1023.17 1023.09 1023.01 1022.93 1022.81 1022.73 1022.61 1022.53 1022.41 1022.33 1022.21 1022.09 1021.93 1021.81 1021.73 1021.65 1021.49 1021.37 1021.29 1021.21 1021.13 1021.05 1020.93 1020.85 1020.77 1020.65 1020.49 1020.29 1020.09 1019.93 1019.81 1019.65 1019.49 1019.33 1019.17 1019.09 1018.93 1018.77 1018.57 1018.37 1018.21 1018.09 1017.93 1017.81 1017.69 1017.61 1017.49 1017.41 1017.33
1023.89 1023.89 1023.89 1023.93 1023.93 1023.93 1023.93 1023.89 1023.89 1023.85 1023.81 1023.69 1023.65 1023.57 1023.49 1023.41 1023.33 1023.25 1023.21 1023.13 1023.05 1022.97 1022.89 1022.77 1022.65 1022.53 1022.45 1022.37 1022.33 1022.21 1022.09 1021.97 1021.81 1021.65 1021.53 1021.45 1021.37 1021.25 1021.17 1021.05 1020.93 1020.85 1020.77 1020.65 1020.53 1020.41 1020.25 1020.01 1019.81 1019.61 1019.45 1019.29 1019.17 1019.01 1018.89 1018.73 1018.57 1018.41 1018.25 1018.09 1017.93 1017.81 1017.65 1017.53 1017.45 1017.37 1017.29 1017.17 1017.09
1023.85 1023.85 1023.85 1023.89 1023.89 1023.89 1023.85 1023.81 1023.81 1023.77 1023.69 1023.57 1023.49 1023.49 1023.41 1023.33 1023.21 1023.17 1023.09 1023.01 1022.93 1022.81 1022.73 1022.65 1022.53 1022.41 1022.33 1022.21 1022.09 1022.01 1021.93 1021.85 1021.73 1021.57 1021.41 1021.29 1021.17 1021.09 1021.01 1020.93 1020.77 1020.65 1020.53 1020.45 1020.21 1020.01 1019.81 1019.65 1019.45 1019.25 1019.09 1018.97 1018.81 1018.65 1018.49 1018.37 1018.21 1018.09 1017.93 1017.81 1017.69 1017.57 1017.41 1017.29 1017.21 1017.13 1017.05 1016.93 1016.85
1023.81 1023.89 1023.89 1023.81 1023.81 1023.81 1023.81 1023.77 1023.69 1023.65 1023.57 1023.49 1023.45 1023.37 1023.29 1023.21 1023.09 1023.05 1023.01 1022.93 1022.81 1022.65 1022.61 1022.53 1022.45 1022.33 1022.17 1022.05 1021.93 1021.81 1021.73 1021.65 1021.53 1021.45 1021.33 1021.21 1021.09 1020.93 1020.85 1020.77 1020.57 1020.49 1020.37 1020.21 1020.01 1019.77 1019.53 1019.33 1019.09 1018.93 1018.81 1018.69 1018.53 1018.37 1018.17 1018.01 1017.93 1017.81 1017.73 1017.61 1017.49 1017.37 1017.25 1017.13 1016.97 1016.89 1016.81 1016.73 1016.65
1023.81 1023.85 1023.81 1023.77 1023.81 1023.77 1023.69 1023.65 1023.61 1023.53 1023.49 1023.41 1023.33 1023.25 1023.17 1023.05 1023.01 1022.93 1022.89 1022.81 1022.65 1022.53 1022.45 1022.37 1022.33 1022.13 1021.97 1021.89 1021.81 1021.69 1021.57 1021.41 1021.33 1021.25 1021.21 1021.09 1020.97 1020.81 1020.69 1020.57 1020.41 1020.33 1020.21 1020.01 1019.73 1019.49 1019.25 1019.09 1018.89 1018.65 1018.53 1018.49 1018.29 1018.09 1017.93 1017.81 1017.65 1017.57 1017.49 1017.37 1017.29 1017.21 1017.09 1016.93 1016.81 1016.65 1016.53 1016.45 1016.37
1023.81 1023.77 1023.73 1023.73 1023.73 1023.65 1023.57 1023.49 1023.49 1023.45 1023.37 1023.25 1023.21 1023.09 1023.01 1022.93 1022.93 1022.85 1022.81 1022.65 1022.53 1022.49 1022.37 1022.25 1022.09 1021.93 1021.81 1021.73 1021.65 1021.57 1021.45 1021.33 1021.21 1021.09 1021.01 1020.89 1020.81 1020.65 1020.53 1020.37 1020.21 1020.09 1019.93 1019.69 1019.49 1019.25 1019.05 1018.81 1018.65 1018.49 1018.33 1018.13 1018.01 1017.85 1017.73 1017.57 1017.45 1017.33 1017.21 1017.13 1017.05 1016.93 1016.81 1016.69 1016.57 1016.45 1016.37 1016.21 1016.09
1023.65 1023.65 1023.65 1023.69 1023.65 1023.57 1023.49 1023.45 1023.37 1023.29 1023.21 1023.09 1023.05 1022.93 1022.89 1022.85 1022.81 1022.73 1022.65 1022.53 1022.45 1022.37 1022.25 1022.09 1021.89 1021.77 1021.69 1021.65 1021.49 1021.37 1021.29 1021.21 1021.09 1020.93 1020.85 1020.73 1020.61 1020.49 1020.33 1020.17 1020.01 1019.85 1019.65 1019.45 1019.21 1019.05 1018.85 1018.65 1018.45 1018.21 1018.05 1017.89 1017.81 1017.65 1017.49 1017.37 1017.21 1017.09 1016.97 1016.89 1016.81 1016.69 1016.57 1016.49 1016.37 1016.21 1016.13 1016.05 1015.93
1023.61 1023.61 1023.65 1023.65 1023.57 1023.49 1023.37 1023.33 1023.21 1023.09 1023.01 1022.93 1022.89 1022.85 1022.81 1022.73 1022.65 1022.61 1022.53 1022.45 1022.37 1022.21 1022.09 1021.93 1021.81 1021.73 1021.65 1021.53 1021.37 1021.25 1021.13 1021.01 1020.85 1020.77 1020.69 1020.61 1020.45 1020.29 1020.09 1019.93 1019.81 1019.65 1019.49 1019.29 1019.09 1018.85 1018.61 1018.41 1018.21 1018.01 1017.81 1017.65 1017.57 1017.45 1017.29 1017.17 1017.05 1016.93 1016.77 1016.65 1016.57 1016.49 1016.37 1016.29 1016.21 1016.09 1015.97 1015.89 1015.81
1023.49 1023.53 1023.57 1023.53 1023.49 1023.37 1023.25 1023.13 1023.01 1022.93 1022.89 1022.85 1022.81 1022.77 1022.73 1022.65 1022.57 1022.49 1022.37 1022.25 1022.17 1021.97 1021.81 1021.77 1021.73 1021.65 1021.49 1021.37 1021.25 1021.13 1021.01 1020.85 1020.73 1020.65 1020.53 1020.41 1020.25 1020.09 1019.93 1019.77 1019.65 1019.49 1019.33 1019.09 1018.85 1018.61 1018.37 1018.21 1018.01 1017.85 1017.65 1017.45 1017.37 1017.21 1017.09 1016.93 1016.81 1016.73 1016.61 1016.45 1016.37 1016.25 1016.21 1016.13 1016.05 1015.93 1015.85 1015.77 1015.65
1023.41 1023.45 1023.45 1023.49 1023.37 1023.25 1023.09 1022.97 1022.89 1022.81 1022.81 1022.77 1022.69 1022.65 1022.61 1022.53 1022.41 1022.29 1022.21 1022.09 1021.97 1021.85 1021.77 1021.69 1021.65 1021.49 1021.37 1021.21 1021.09 1020.97 1020.85 1020.69 1020.57 1020.45 1020.33 1020.21 1020.09 1019.89 1019.73 1019.57 1019.45 1019.29 1019.09 1018.85 1018.65 1018.41 1018.21 1018.01 1017.81 1017.65 1017.45 1017.25 1017.13 1017.01 1016.85 1016.73 1016.61 1016.53 1016.37 1016.25 1016.17 1016.09 1016.05 1015.93 1015.85 1015.77 1015.69 1015.61 1015.49
1023.33 1023.37 1023.37 1023.37 1023.25 1023.09 1022.93 1022.85 1022.77 1022.69 1022.65 1022.65 1022.61 1022.53 1022.45 1022.37 1022.25 1022.13 1022.05 1021.93 1021.85 1021.77 1021.65 1021.57 1021.45 1021.33 1021.21 1021.09 1020.93 1020.81 1020.65 1020.53 1020.37 1020.21 1020.09 1019.97 1019.89 1019.73 1019.53 1019.37 1019.21 1019.05 1018.85 1018.65 1018.41 1018.21 1018.01 1017.81 1017.65 1017.45 1017.25 1017.05 1016.93 1016.81 1016.65 1016.53 1016.37 1016.25 1016.17 1016.05 1015.97 1015.89 1015.85 1015.81 1015.73 1015.65 1015.53 1015.45 1015.37
1023.21 1023.21 1023.21 1023.17 1023.09 1022.93 1022.81 1022.77 1022.69 1022.65 1022.61 1022.57 1022.49 1022.37 1022.29 1022.21 1022.13 1022.05 1021.93 1021.81 1021.65 1021.57 1021.45 1021.37 1021.25 1021.13 1021.01 1020.93 1020.77 1020.65 1020.49 1020.29 1020.17 1020.05 1019.93 1019.81 1019.73 1019.61 1019.41 1019.21 1019.01 1018.81 1018.65 1018.45 1018.25 1018.05 1017.85 1017.65 1017.45 1017.25 1017.05 1016.85 1016.69 1016.57 1016.45 1016.37 1016.21 1016.09 1015.97 1015.89 1015.81 1015.77 1015.73 1015.65 1015.61 1015.53 1015.45 1015.33 1015.17
1023.09 1023.09 1023.09 1023.01 1022.93 1022.81 1022.73 1022.65 1022.61 1022.57 1022.53 1022.49 1022.37 1022.25 1022.17 1022.09 1022.01 1021.89 1021.73 1021.53 1021.41 1021.33 1021.25 1021.13 1021.05 1020.93 1020.81 1020.69 1020.61 1020.49 1020.37 1020.17 1019.97 1019.89 1019.77 1019.65 1019.53 1019.37 1019.21 1018.97 1018.81 1018.65 1018.49 1018.33 1018.09 1017.89 1017.65 1017.49 1017.29 1017.09 1016.89 1016.69 1016.53 1016.41 1016.29 1016.13 1016.01 1015.89 1015.81 1015.73 1015.69 1015.65 1015.61 1015.53 1015.49 1015.37 1015.25 1015.09 1014.93
1022.93 1022.93 1022.93 1022.85 1022.81 1022.69 1022.65 1022.57 1022.53 1022.49 1022.41 1022.37 1022.21 1022.13 1022.01 1021.93 1021.81 1021.65 1021.49 1021.37 1021.25 1021.21 1021.09 1020.93 1020.81 1020.77 1020.65 1020.53 1020.37 1020.29 1020.17 1020.01 1019.85 1019.69 1019.57 1019.49 1019.37 1019.21 1019.01 1018.81 1018.61 1018.41 1018.25 1018.09 1017.93 1017.73 1017.49 1017.29 1017.09 1016.93 1016.73 1016.57 1016.41 1016.25 1016.09 1015.93 1015.85 1015.77 1015.69 1015.65 1015.57 1015.53 1015.49 1015.41 1015.29 1015.21 1015.05 1014.89 1014.69
1022.73 1022.77 1022.77 1022.73 1022.65 1022.61 1022.49 1022.45 1022.41 1022.37 1022.29 1022.17 1022.09 1021.97 1021.85 1021.73 1021.61 1021.49 1021.33 1021.21 1021.17 1021.09 1020.93 1020.81 1020.69 1020.61 1020.53 1020.37 1020.21 1020.09 1019.93 1019.81 1019.69 1019.53 1019.41 1019.25 1019.17 1019.01 1018.81 1018.61 1018.41 1018.25 1018.09 1017.93 1017.77 1017.57 1017.37 1017.17 1016.97 1016.81 1016.61 1016.45 1016.25 1016.09 1015.93 1015.81 1015.73 1015.65 1015.61 1015.49 1015.41 1015.37 1015.33 1015.21 1015.09 1014.93 1014.81 1014.61 1014.41
1022.53 1022.57 1022.61 1022.57 1022.53 1022.45 1022.37 1022.29 1022.29 1022.21 1022.09 1021.97 1021.85 1021.73 1021.61 1021.49 1021.41 1021.29 1021.17 1021.01 1020.97 1020.93 1020.81 1020.65 1020.57 1020.45 1020.29 1020.21 1020.05 1019.89 1019.73 1019.61 1019.49 1019.37 1019.25 1019.09 1019.01 1018.89 1018.69 1018.45 1018.21 1018.09 1017.93 1017.77 1017.57 1017.41 1017.21 1017.05 1016.81 1016.65 1016.45 1016.29 1016.09 1015.93 1015.81 1015.73 1015.65 1015.57 1015.49 1015.37 1015.29 1015.21 1015.09 1014.97 1014.85 1014.69 1014.53 1014.37 1014.09
1022.37 1022.37 1022.41 1022.37 1022.37 1022.25 1022.21 1022.17 1022.09 1022.01 1021.89 1021.81 1021.65 1021.53 1021.41 1021.37 1021.21 1021.09 1020.93 1020.81 1020.81 1020.77 1020.65 1020.53 1020.41 1020.25 1020.09 1019.97 1019.81 1019.65 1019.49 1019.37 1019.29 1019.21 1019.09 1018.93 1018.81 1018.69 1018.53 1018.29 1018.09 1017.93 1017.77 1017.61 1017.45 1017.25 1017.09 1016.89 1016.65 1016.45 1016.29 1016.13 1015.97 1015.85 1015.77 1015.65 1015.49 1015.41 1015.33 1015.25 1015.09 1014.93 1014.81 1014.73 1014.65 1014.45 1014.25 1014.05 1013.73
1022.17 1022.21 1022.21 1022.21 1022.17 1022.09 1022.05 1021.97 1021.89 1021.77 1021.65 1021.61 1021.49 1021.37 1021.25 1021.13 1020.93 1020.81 1020.69 1020.65 1020.61 1020.57 1020.49 1020.37 1020.21 1020.09 1019.93 1019.77 1019.65 1019.49 1019.33 1019.17 1019.05 1018.97 1018.89 1018.77 1018.61 1018.45 1018.29 1018.17 1017.93 1017.81 1017.65 1017.49 1017.33 1017.09 1016.93 1016.73 1016.53 1016.29 1016.09 1016.05 1015.93 1015.81 1015.69 1015.57 1015.41 1015.25 1015.17 1015.05 1014.93 1014.73 1014.57 1014.45 1014.37 1014.21 1013.97 1013.69 1013.41
1022.05 1022.05 1022.01 1022.01 1021.93 1021.93 1021.85 1021.81 1021.65 1021.53 1021.45 1021.37 1021.29 1021.17 1021.01 1020.85 1020.77 1020.65 1020.57 1020.49 1020.45 1020.37 1020.29 1020.13 1020.01 1019.85 1019.73 1019.57 1019.49 1019.33 1019.17 1018.97 1018.81 1018.73 1018.65 1018.53 1018.41 1018.29 1018.17 1018.05 1017.85 1017.69 1017.53 1017.37 1017.21 1016.93 1016.73 1016.53 1016.33 1016.13 1015.97 1015.89 1015.81 1015.73 1015.61 1015.49 1015.29 1015.13 1014.97 1014.85 1014.73 1014.57 1014.37 1014.17 1014.01 1013.85 1013.65 1013.37 1013.13
Wind_Speed
1 1 2 2 2 2 1 1 1 1 1 2 2 2 2 2 2 2 2 2 2 2 2 2 2 3 3 3 3 4 5 5 5 5 6 6 6 6 6 5 5 5 5 6 6 5 5 4 4 3 3 4 4 4 4 4 5 5 5 5 5 5 6 7 7 8 8 8 7
1 1 1 2 2 2 1 0 0 0 1 1 2 2 2 2 2 2 2 2 2 2 2 2 2 2 3 4 4 4 4 5 6 6 6 6 6 6 6 6 6 6 6 6 6 6 5 5 4 4 4 4 4 5 5 5 5 5 6 7 5 5 5 6 7 7 7 7 6
2 1 2 2 2 1 1 1 1 1 1 1 1 1 2 2 2 2 2 2 2 2 2 2 2 2 3 4 4 4 4 4 5 5 6 6 7 7 6 6 6 7 7 6 6 6 6 5 5 5 5 5 5 6 6 5 5 5 5 6 5 5 5 6 6 6 6 5 6
1 2 2 2 2 2 2 2 2 2 2 1 1 1 1 2 2 2 2 2 2 2 2 2 2 3 3 3 4 4 4 4 4 4 5 6 7 7 7 6 7 7 7 7 7 7 6 6 5 5 5 6 6 6 6 5 5 5 5 5 5 5 5 5 5 5 5 6 6
1 1 1 2 2 2 2 2 2 2 1 1 1 1 1 1 1 1 1 1 2 2 2 2 2 3 3 3 4 4 5 5 4 4 5 6 6 7 6 6 7 7 7 7 7 7 7 6 5 5 5 6 6 6 6 6 6 5 5 5 4 5 5 5 5 5 5 5 5
1 1 1 1 1 1 1 1 2 1 1 1 1 1 1 1 1 1 1 2 3 3 2 2 3 3 3 3 3 4 4 5 4 4 4 6 6 6 7 7 7 7 7 7 7 7 7 6 5 5 5 5 5 5 6 6 6 6 6 5 5 5 5 5 5 5 5 6 6
1 1 1 1 1 1 1 1 1 1 1 1 1 2 2 2 1 2 2 3 3 3 2 2 3 3 3 3 3 4 5 5 5 5 5 6 6 7 7 7 8 7 7 8 8 7 7 6 6 6 6 6 6 6 6 6 6 6 7 7 6 5 5 6 5 5 6 7 8
1 1 1 1 0 1 1 0 0 0 0 1 1 2 2 2 2 2 2 2 2 2 2 2 2 2 2 3 4 5 5 6 6 6 6 6 7 7 8 8 8 8 8 8 8 8 7 6 5 5 6 6 5 6 7 7 7 7 8 8 7 6 5 6 5 5 6 8 8
1 0 0 0 0 0 0 0 1 1 1 1 2 2 2 2 2 2 2 2 2 2 2 2 2 2 3 3 4 5 5 6 6 7 7 7 7 8 8 8 8 8 8 8 8 8 7 6 6 5 6 5 6 7 8 8 8 9 8 8 8 7 6 6 6 6 7 8 9
1 0 1 1 0 0 0 1 1 1 1 2 2 2 2 2 2 2 2 2 2 2 2 2 2 3 3 4 5 5 6 6 6 6 7 7 7 8 8 8 8 8 8 8 7 7 7 6 6 7 7 6 7 8 9 9 9 9 9 7 8 8 9 8 7 8 8 9 10
0 0 1 0 0 0 0 1 1 1 1 1 2 2 2 2 2 2 2 1 2 3 3 3 3 3 4 5 5 6 6 5 6 6 7 7 7 7 8 8 8 8 8 8 7 7 7 6 7 8 9 8 8 8 9 9 9 9 9 8 9 9 10 10 9 9 9 9 10
0 0 0 0 0 0 0 0 0 0 1 1 2 2 2 2 2 2 1 1 2 3 4 3 3 3 4 5 5 6 6 6 6 6 6 7 7 8 8 8 8 8 8 8 7 6 6 7 8 9 10 10 8 8 8 9 9 10 10 10 10 10 11 11 10 9 9 9 10
0 0 0 0 0 0 1 1 0 1 1 1 2 2 2 3 2 2 1 2 3 3 4 3 3 3 4 5 5 6 6 6 6 6 6 7 7 8 8 8 8 8 8 8 7 7 7 8 8 9 10 10 9 8 9 9 10 10 11 11 11 11 11 12 11 10 10 10 10
0 0 0 0 0 1 1 1 1 1 1 2 2 3 3 3 2 2 1 2 3 4 4 4 4 4 4 5 5 6 6 6 6 6 7 7 7 8 8 8 8 8 8 8 7 7 8 8 8 9 9 10 10 10 10 9 10 10 11 11 12 12 12 12 12 11 11 11 11
0 0 0 0 1 1 1 0 1 1 2 3 3 3 3 3 2 2 2 2 3 4 3 4 4 5 5 5 5 6 6 6 6 7 7 8 8 8 8 8 8 8 8 8 7 7 7 8 8 9 9 10 10 10 10 10 10 10 10 11 12 12 12 12 12 11 11 11 11
0 0 1 1 1 1 0 1 1 1 2 3 3 3 3 3 3 2 2 3 3 3 3 4 5 5 5 5 5 6 6 6 6 7 7 8 8 8 8 8 8 8 8 8 8 8 8 8 8 8 9 9 10 10 10 10 10 10 10 11 11 12 12 12 12 12 12 12 11
1 0 1 1 0 1 1 1 1 2 2 3 3 3 3 3 3 3 3 4 3 4 4 6 5 5 5 6 6 5 5 6 6 7 7 8 8 8 8 8 9 9 8 8 8 9 9 8 8 8 8 9 9 10 10 10 10 10 11 11 11 12 12 12 12 12 12 12 12
0 0 0 0 1 1 2 2 2 2 3 4 4 4 3 3 3 3 4 4 4 4 5 7 6 5 5 6 6 5 5 6 7 7 7 8 8 8 8 9 9 8 8 8 8 9 9 9 9 9 9 9 9 10 10 10 10 11 11 12 12 12 12 12 12 12 12 12 13
1 1 1 1 2 2 3 3 3 3 3 4 4 4 4 4 3 4 4 4 4 5 5 6 6 6 6 7 7 6 6 6 7 8 8 8 8 8 8 8 9 8 8 8 8 9 9 9 10 10 10 10 10 10 10 10 11 11 11 12 12 12 12 12 12 12 12 12 12
1 2 2 3 3 3 3 3 3 3 3 3 4 4 4 4 4 4 5 6 6 5 5 6 7 7 7 7 7 7 6 5 7 7 8 8 8 8 8 8 9 9 8 8 8 9 9 9 10 10 10 10 10 11 11 11 11 11 11 11 11 11 12 12 12 12 12 12 12
2 3 3 3 3 3 3 3 3 3 3 3 4 5 5 5 5 5 6 7 6 6 6 6 7 8 8 8 8 8 7 5 6 7 7 8 8 8 8 8 8 9 9 8 8 9 9 10 10 10 10 10 11 11 11 11 11 11 11 10 11 11 12 12 12 12 12 12 12
3 3 3 3 3 3 3 3 3 3 3 4 4 5 5 5 6 6 6 6 5 6 6 7 8 8 8 8 8 8 7 6 6 7 7 7 8 8 8 8 8 9 9 9 9 9 9 9 9 10 10 10 10 11 11 11 11 11 11 11 11 12 12 11 11 11 11 11 11
3 3 3 3 3 3 3 3 3 3 4 4 5 5 6 6 7 7 6 6 6 6 7 7 7 8 8 8 8 7 7 7 7 7 7 7 7 8 8 8 8 8 9 8 8 8 8 9 9 9 9 9 10 10 10 10 10 10 11 11 11 11 11 10 10 10 10 9 9
3 3 3 2 3 3 3 3 3 4 4 6 6 6 6 7 7 7 6 7 7 7 7 7 7 7 7 7 7 7 7 7 8 8 8 8 8 8 8 8 8 8 8 7 8 9 10 9 9 9 9 9 9 9 9 9 9 10 10 11 11 11 10 9 9 8 8 8 8
2 3 3 3 3 3 3 3 4 5 6 7 7 7 7 7 7 7 7 7 8 8 8 8 7 6 6 7 7 7 7 7 8 8 8 9 8 8 8 8 8 7 7 7 12 16 18 17 13 11 9 8 9 9 10 10 10 10 10 10 10 10 10 10 9 9 8 8 8
2 3 3 4 3 4 4 5 6 6 7 7 7 7 7 7 6 6 6 7 8 8 7 7 7 6 6 6 6 6 6 6 7 8 8 9 9 9 8 8 7 7 7 9 15 19 22 23 22 18 14 9 9 10 10 10 10 10 10 10 10 10 10 10 10 9 9 8 8
3 3 4 4 4 5 6 6 6 6 6 6 7 7 7 7 6 6 6 7 7 7 6 6 6 6 6 5 6 7 7 7 7 7 8 8 9 9 9 8 7 7 7 12 17 21 23 24 25 23 19 13 10 10 10 10 10 10 10 10 9 9 10 10 10 10 10 9 9
3 4 4 4 5 6 7 6 6 7 7 7 7 7 6 6 6 6 6 7 6 6 5 5 5 5 4 5 6 7 8 8 7 8 8 8 9 9 9 9 8 8 10 15 20 22 23 24 24 24 23 19 14 11 10 10 10 10 9 9 9 10 10 10 10 10 10 11 10
4 4 4 5 6 7 7 7 7 7 8 7 7 6 6 6 6 6 6 6 5 5 5 5 4 4 4 5 6 7 7 7 7 7 7 8 8 9 9 9 9 10 13 19 21 23 24 24 24 24 24 23 16 12 9 9 9 9 9 9 9 9 10 10 10 10 10 10 10
5 5 5 6 7 7 7 7 8 8 7 6 5 5 6 6 6 6 6 5 5 5 5 5 4 5 6 7 7 7 7 7 7 7 7 8 8 9 10 10 9 10 13 18 21 23 24 24 24 25 25 25 20 14 10 9 9 9 9 9 9 10 10 10 10 10 10 9 10
5 5 5 6 7 8 8 8 7 7 6 5 5 5 5 5 6 6 5 4 5 5 5 4 5 6 7 7 6 6 7 7 7 7 7 8 10 10 10 10 10 11 13 18 21 23 24 25 25 25 25 25 20 15 11 10 10 9 9 9 10 10 10 9 9 10 10 10 10
6 5 6 6 7 8 8 8 7 6 5 5 5 5 5 5 5 5 4 4 4 5 5 5 6 7 7 7 6 6 7 8 8 8 8 9 10 10 10 11 10 11 14 19 22 24 25 25 25 25 26 26 21 16 13 11 11 10 10 10 10 10 9 8 8 9 10 10 10
6 6 6 6 7 8 7 7 6 5 4 4 4 4 5 5 5 4 4 4 4 4 5 5 6 6 6 7 7 7 8 8 9 10 10 10 10 10 10 11 10 12 15 21 23 25 25 25 25 26 26 26 20 16 12 11 10 10 9 9 9 9 9 8 8 9 10 11 11
6 5 6 6 7 7 7 6 5 4 4 4 4 4 4 4 5 5 5 4 4 4 4 5 5 5 5 6 6 7 8 9 9 10 10 10 10 10 10 10 9 12 17 22 24 25 25 25 25 26 26 25 19 14 11 11 10 10 9 9 8 8 8 8 9 9 10 11 11
6 5 5 6 6 6 6 5 4 3 3 4 5 5 5 4 5 5 5 5 4 4 4 4 5 5 5 6 6 7 8 10 10 10 10 10 10 11 11 11 11 14 18 22 24 25 25 25 25 26 25 22 15 12 10 10 10 9 9 9 9 9 9 9 9 9 10 11 12
5 5 6 6 6 6 6 5 4 3 4 5 6 6 5 5 5 5 5 5 5 5 5 5 5 5 5 6 6 7 8 10 10 10 10 10 10 11 12 12 12 15 18 21 23 24 25 25 25 25 23 18 12 10 9 9 8 8 8 9 9 9 9 9 9 10 10 11 11
5 5 5 6 6 6 5 4 4 4 5 6 6 6 5 5 5 4 4 4 4 4 5 5 6 6 6 6 7 8 8 9 9 10 11 11 11 11 12 13 13 14 17 20 22 24 24 24 25 24 21 15 11 9 9 8 7 7 8 9 9 9 9 9 9 10 10 11 11
5 5 5 5 6 6 5 4 4 5 6 6 6 5 4 4 4 4 4 4 4 4 5 5 6 6 7 7 9 9 10 9 9 10 11 11 10 11 12 13 13 13 15 18 21 23 24 24 24 23 20 14 11 9 8 7 7 7 8 8 8 9 8 8 8 8 10 11 14
5 5 5 5 6 6 5 5 5 5 6 6 5 5 5 4 4 4 4 4 4 4 5 5 6 7 8 9 9 10 10 10 10 10 10 10 11 11 13 13 13 13 14 18 21 22 23 22 23 22 20 15 11 9 8 7 7 8 8 8 8 8 8 8 8 8 9 12 17
5 5 5 5 6 6 5 5 6 6 5 5 5 5 5 4 5 5 4 4 4 4 5 6 7 8 9 9 10 10 11 11 10 10 10 10 11 13 14 13 12 12 14 17 19 21 21 21 22 22 20 14 10 8 7 7 8 8 8 8 8 8 8 8 8 8 9 11 15
4 4 5 6 6 6 6 6 6 6 5 5 5 5 5 5 5 4 4 4 4 4 5 6 7 8 9 9 9 10 11 11 11 11 10 10 11 12 12 12 12 12 12 14 17 19 20 21 21 21 20 15 11 8 7 7 8 9 9 9 9 8 8 9 8 9 10 10 10
Wind_Direction
133 150 155 156 156 157 162 178 177 169 165 169 184 188 187 182 212 224 221 203 217 231 242 247 252 262 272 277 279 284 288 292 293 293 293 292 288 287 287 286 284 282 282 282 284 285 284 280 281 283 284 283 282 281 281 280 282 281 280 279 279 280 280 279 279 279 278 276 275
150 149 143 134 127 124 123 140 204 208 196 189 187 185 185 187 207 221 225 219 223 231 245 258 261 270 279 284 283 284 286 291 294 297 298 296 291 289 287 286 284 282 282 284 287 289 292 293 295 297 297 294 294 292 290 287 286 286 285 283 282 282 283 282 280 279 278 277 278
137 127 119 114 114 121 133 166 209 227 229 224 203 191 189 198 209 219 229 231 231 237 252 267 271 278 285 291 291 288 285 286 292 295 297 295 293 292 290 288 289 289 289 290 291 293 296 299 302 302 302 301 300 297 295 293 292 290 287 285 285 286 286 284 283 283 284 284 283
108 117 125 136 147 158 170 180 197 214 220 217 207 204 208 215 220 227 237 252 256 253 253 264 278 284 288 291 293 293 290 288 289 290 291 292 292 292 292 293 295 296 296 298 298 299 300 303 304 303 301 300 298 297 295 294 293 290 287 286 287 288 287 287 288 288 289 287 285
115 137 156 165 175 180 184 180 189 199 205 187 190 220 232 231 233 239 256 272 267 262 262 271 278 282 282 283 289 293 295 295 295 293 292 292 293 294 297 299 298 298 300 302 303 303 304 307 306 304 301 299 296 293 291 292 293 291 289 289 290 289 289 289 289 289 288 289 288
151 168 187 191 190 194 195 191 191 191 183 149 181 237 248 239 234 244 258 265 269 273 278 279 277 280 284 289 293 296 299 301 301 300 298 297 298 301 303 304 302 303 304 305 305 305 306 309 308 305 302 300 296 293 291 292 292 293 293 293 292 292 290 289 290 290 290 289 288
150 163 188 206 197 199 209 209 198 176 156 150 212 242 253 254 255 256 260 266 280 286 288 282 282 286 294 302 303 303 305 306 306 306 304 303 304 305 306 306 306 307 306 306 307 307 307 308 307 305 304 303 300 297 296 295 295 295 296 296 295 294 293 290 290 290 290 288 287
128 150 181 201 200 210 218 217 182 172 195 217 232 245 254 262 269 271 276 284 287 286 285 287 285 288 294 301 303 304 306 309 310 309 308 308 309 308 307 307 308 308 306 306 307 307 307 307 305 303 302 303 300 299 299 299 299 298 297 296 296 295 293 290 291 290 289 288 287
85 117 157 89 185 219 221 205 185 197 225 240 242 244 248 255 262 271 282 288 285 283 285 286 284 288 295 300 301 303 305 308 308 309 309 309 309 309 308 309 309 308 306 306 306 304 304 304 302 300 299 300 300 300 301 302 302 299 297 296 296 295 293 292 291 290 288 287 286
56 23 16 16 347 257 213 198 194 202 224 249 253 250 250 254 257 260 264 271 287 294 293 283 291 300 304 304 303 303 303 304 305 305 306 306 305 305 305 305 305 305 304 305 304 304 303 302 301 300 299 299 299 300 301 302 301 299 297 295 296 296 295 294 292 290 288 287 285
66 13 359 345 293 255 213 191 191 205 238 270 274 272 268 267 263 258 258 272 297 296 290 283 297 304 304 303 301 301 300 301 302 302 302 302 301 300 299 299 299 299 300 301 302 303 303 302 301 300 300 300 300 301 301 300 299 297 295 295 295 295 294 293 291 290 288 287 285
90 313 281 264 252 233 183 117 89 324 311 296 290 285 279 270 259 258 268 292 295 291 288 289 297 300 299 298 297 298 298 299 299 298 298 298 297 296 296 295 295 296 296 298 300 301 302 301 301 301 301 301 301 301 299 299 298 296 295 294 294 293 293 292 290 289 288 288 288
147 227 255 258 270 70 60 48 23 349 317 298 287 281 276 270 259 256 268 285 287 289 292 295 297 295 293 292 293 295 296 295 295 295 295 295 295 295 295 295 295 295 296 297 298 300 300 300 300 300 300 300 299 298 297 296 296 295 295 294 294 293 292 291 289 289 288 289 287
145 182 228 295 50 57 55 36 359 323 300 290 279 276 274 275 267 261 262 277 282 286 291 296 295 291 287 287 289 290 290 291 292 293 293 292 293 293 294 295 295 296 296 298 298 298 298 298 297 297 296 296 296 295 295 294 293 292 292 293 293 292 291 290 289 289 289 288 287
106 90 70 49 57 55 44 11 311 291 284 280 274 273 276 282 278 275 273 276 277 279 285 292 291 289 287 285 285 286 287 289 290 291 292 292 292 293 293 294 296 296 296 297 297 297 295 294 294 293 293 293 293 293 293 293 291 290 289 289 289 288 288 287 287 287 286 285 285
65 44 40 47 44 28 343 279 264 266 270 273 273 276 280 282 282 283 281 278 278 280 285 287 286 288 290 288 286 286 287 288 289 290 291 293 293 294 294 295 296 295 295 295 295 295 293 292 291 291 291 291 291 292 292 291 290 288 286 285 284 284 283 284 284 284 283 283 282
37 23 28 37 6 303 276 264 260 262 267 271 276 277 278 279 283 283 279 277 280 285 288 286 285 287 291 291 289 288 288 289 289 290 290 291 292 293 294 293 293 293 293 293 293 293 293 292 292 291 290 289 289 289 289 289 288 286 284 283 281 280 280 280 281 282 282 282 280
343 325 314 296 262 259 259 259 262 263 266 269 272 273 273 273 277 279 279 278 278 282 284 285 285 286 287 287 287 286 286 287 287 287 287 288 288 289 290 289 289 290 290 290 289 290 291 292 293 293 292 290 289 288 287 287 286 284 282 281 280 279 278 277 277 278 278 278 277
266 267 259 246 244 246 251 255 257 260 262 263 267 270 271 269 270 275 280 280 277 276 279 283 285 285 283 282 283 283 284 284 284 284 284 284 285 286 286 287 288 289 289 289 288 288 289 290 291 292 292 291 289 288 286 285 283 282 280 279 279 277 276 275 274 273 272 272 273
243 246 245 239 237 241 247 249 251 254 258 261 264 268 269 269 269 273 277 278 277 276 277 279 282 283 282 281 282 282 281 280 282 283 283 284 285 286 286 286 288 289 289 289 288 288 288 289 290 290 289 288 287 286 284 282 281 280 279 278 277 276 274 273 271 270 269 268 268
236 238 237 236 236 240 245 247 249 253 258 263 264 266 268 271 272 271 271 273 277 279 278 275 276 277 279 280 281 280 280 280 280 281 282 284 285 285 285 287 289 291 292 291 290 288 287 287 286 286 285 283 282 280 280 280 280 279 278 277 275 274 272 271 270 268 267 266 266
239 238 237 239 242 245 249 253 255 259 263 266 265 266 269 272 272 271 271 274 278 278 275 273 272 273 273 274 276 277 279 280 281 280 281 284 285 286 287 289 291 292 293 292 290 288 286 284 283 280 278 278 276 275 275 276 277 278 278 276 275 273 272 270 268 267 266 265 265
244 245 247 245 250 256 260 262 264 266 268 269 269 271 272 273 274 274 276 277 277 274 272 271 270 269 269 269 270 273 278 282 283 283 282 283 286 288 290 291 292 291 291 289 286 285 284 283 281 277 274 273 273 273 273 273 275 276 277 277 277 275 274 271 269 267 266 264 263
251 258 260 259 260 262 264 266 270 271 271 271 271 273 274 275 277 278 280 278 275 273 271 271 271 270 270 270 269 270 274 279 284 287 288 289 289 291 292 293 292 290 288 286 287 288 288 288 285 281 279 277 276 276 277 277 278 278 279 280 280 280 279 277 274 271 268 265 263
260 268 271 270 266 266 267 269 269 269 270 270 273 274 276 276 277 278 278 277 275 273 271 272 273 274 273 273 271 270 271 276 283 289 293 295 295 295 294 295 293 291 289 287 290 293 295 298 299 297 293 290 288 288 287 286 286 286 286 286 287 287 288 286 284 280 276 271 267
268 271 271 267 267 270 270 268 267 268 270 273 275 276 275 274 273 273 274 274 274 274 274 274 275 276 276 275 277 279 280 283 287 291 294 297 297 297 296 294 294 292 290 289 294 297 300 303 304 305 303 299 297 295 295 294 292 291 291 290 290 290 290 290 289 287 284 280 274
270 268 266 266 270 271 269 266 269 270 272 273 273 273 272 270 271 272 272 272 274 275 276 276 275 275 277 280 285 288 291 292 293 293 293 293 295 295 295 293 293 290 288 291 296 300 303 306 307 307 307 303 300 298 297 297 295 294 292 291 290 290 289 289 290 290 291 289 284
263 264 267 272 273 271 270 270 272 271 270 269 268 268 269 271 272 272 272 273 277 280 281 278 274 275 280 287 289 291 292 294 294 294 293 292 292 292 292 292 292 290 291 296 301 304 306 308 308 308 308 306 304 301 300 299 298 297 295 293 292 291 291 290 291 292 293 293 291
259 264 270 274 273 273 273 274 270 268 266 265 266 267 270 273 273 274 275 278 282 283 283 280 281 285 290 292 292 292 293 292 293 293 294 294 293 292 292 292 291 293 296 301 304 306 308 308 308 308 308 309 307 305 303 300 299 298 296 294 293 293 293 293 293 293 293 292 292
259 263 268 269 270 272 272 270 267 265 265 266 268 271 274 275 277 278 279 281 280 277 276 279 288 291 291 289 290 293 294 293 294 295 295 296 295 295 295 295 295 297 300 303 305 307 308 308 309 309 309 310 308 305 302 300 298 297 295 294 293 293 292 292 292 292 292 293 292
262 262 264 265 267 268 267 265 265 265 266 269 272 274 276 278 279 278 277 276 275 275 278 283 286 286 285 285 288 290 292 294 296 297 296 296 297 297 298 299 298 298 299 303 306 307 309 310 310 310 310 310 308 306 303 300 298 296 295 293 293 292 292 291 292 292 293 293 293
263 262 261 262 263 264 264 265 267 268 270 272 273 274 275 274 272 271 270 270 277 282 287 289 287 286 288 290 291 293 294 297 298 298 298 299 299 299 300 300 299 299 301 305 307 309 310 311 311 310 309 309 308 306 303 301 298 296 293 292 291 291 292 293 294 295 295 294 294
260 258 257 257 259 262 265 267 269 271 271 272 271 271 271 272 272 273 274 272 275 278 282 284 286 288 291 294 296 297 298 298 299 299 300 300 300 300 300 300 299 301 304 308 309 310 311 311 311 310 309 310 308 306 304 301 298 295 294 293 293 294 295 295 296 296 295 293 291
256 255 255 255 258 262 266 269 270 271 272 272 271 269 269 273 278 280 279 275 274 274 276 278 281 284 286 290 293 296 298 300 301 301 302 301 300 300 300 300 300 303 307 309 310 310 311 311 311 310 310 310 309 306 303 299 297 295 295 295 297 298 299 299 296 294 292 289 287
255 256 258 260 261 263 266 268 269 268 270 272 273 273 272 271 274 275 276 276 278 280 281 280 280 281 286 289 291 294 298 300 301 301 301 301 302 301 301 300 300 303 306 308 310 310 311 311 311 311 311 311 309 306 301 298 297 297 298 299 301 302 301 299 295 291 288 285 284
255 256 259 262 263 264 263 264 264 265 268 271 275 277 276 274 271 269 271 276 282 284 285 286 288 291 294 296 296 297 298 299 300 301 301 303 303 303 302 301 301 303 306 308 310 311 312 312 312 312 312 311 307 304 301 300 299 301 302 303 302 301 299 297 293 289 285 283 281
255 251 252 257 259 259 258 256 259 265 270 272 274 275 277 276 275 272 272 279 285 287 288 289 293 295 296 297 298 297 297 297 299 301 302 304 305 304 303 302 301 303 305 308 310 311 312 312 312 312 312 309 307 305 304 303 303 304 304 303 301 298 296 293 290 287 284 282 280
254 245 241 245 250 253 253 253 257 264 269 271 272 272 272 274 276 275 275 279 283 286 289 292 294 294 294 295 296 296 297 297 299 301 302 303 303 303 302 302 302 303 305 308 309 311 311 312 312 312 311 309 308 308 307 306 305 304 303 302 299 296 293 290 289 287 285 282 284
252 240 233 234 242 247 251 254 257 262 266 270 272 273 274 274 274 274 274 275 277 281 285 290 291 292 293 296 298 299 299 299 299 300 301 301 301 302 302 302 302 303 305 307 308 309 310 310 311 311 312 311 311 310 309 307 304 303 302 300 298 295 293 291 289 287 285 283 286
249 236 228 229 237 243 249 256 258 260 263 267 271 273 273 271 272 273 275 275 275 277 281 285 288 290 293 298 299 300 301 300 300 300 300 300 300 302 304 303 302 301 302 303 305 306 307 309 310 312 314 313 313 311 309 306 304 302 300 299 297 297 295 292 289 287 285 284 286
244 233 228 231 235 241 248 256 260 261 262 265 266 266 267 269 273 276 279 280 280 281 283 287 289 291 294 298 300 300 301 301 300 300 300 300 300 302 302 301 298 297 297 298 300 302 305 309 311 314 316 315 314 312 310 307 303 301 299 297 296 294 293 292 289 286 284 283 284